STARLINK-33947, 63787

Orbit data source: Space-Track

STARLINK-33947, 63787 is a payload satellite owned by SpaceX/Seattle (US) in LEO that was launched on Fri, 02 May 2025 UTC via an FALCON 9 launch vehicle from the Air Force Eastern Test Range (AFETR). Payload-class satellites include a variety of spacecraft equipped with specific instruments for various scientific and technological missions. These include communications satellites like Starlink; space stations such as the ISS; scientific satellites like the Hubble; Earth observation satellites from companies like Planet Labs, Umbra, and HawkEye 360; GPS; miniature CubeSats for education and research; and military/defense satellites.

Loading next visibility...
Identifier
63787, 2025-091N
Orbit
LEO
Country
Flag of USUS
Related business
Manufacturer
SpaceX/Seattle
Mission
Operational Commercial Communications
Bus & Motor
STARLINK V2MO, Unknown motor
Mass
575 kg wet, ~530 kg dry
Launch date (UTC)
2025-05-02 (1 year ago)
Launch vehicle
FALCON 9
Launch site
Air Force Eastern Test Range (AFETR)
Object type
Payload
Rocket body
Debris
Shape & HBR
Box + 2 Pan, 17.7 m
Radar Cross Section
36.964 m², Large (>1 m²)

Expand to show TLE details & history
Last TLE update: 19 hours ago

TLE from 19 hours ago
0 STARLINK-33947
1 63787U 25091N   26171.05724645  .00013274  00000-0  49079-3 0  9997
2 63787  43.0016 194.7895 0001624 275.9185  84.1482 15.27594693 64558
Epoch: 2026-06-20T01:22Z
TLE epoch observation values (Epoch: 2026-06-20T01:22:26.093Z)
Latitude
0.00002°
Longitude
-94.09653°
Altitude
482.667 km
Speed
7.626 km/s
True Right ascension
12h 59m 09s
True Declination
0° 00' 00"
Sunlit
Object was in daylight at epoch
Visualization orbit readout
Latitude
Unknown
Longitude
Unknown
Altitude
Unknown
Speed
Unknown
Apparent Right ascension
Unknown
Apparent Declination
Unknown
Sunlit
N/A
Visualization observer readout
Local Sidereal Time
07:16:57
Azimuth
Unknown
Elevation
Unknown
Doppler factor
Unknown
Orbital elements
Apogee altitude
486.065 km
Perigee altitude
483.835 km
Semi-major axis
6,863.087 km
Eccentricity
0.00016
Inclination
43.0016°
RAAN
194.7895°
Arg. of periapsis
275.9185°
True anomaly
84.16671°
Mean anomaly
84.1482°
Eccentric anomaly
84.15746°
Mean motion
3.81737 °/min
Orbital period
94.31 mins
BSTAR
0.00049079
Loading maneuver chart data...
Computing Atmospheric mass density...
Loading historical data...
Loading historical data...
Loading historical data...
Loading historical data...
Loading historical data...
Loading historical data...
Loading historical data...

Documentation

Showing up to 5 results
|